K4AMF Weather Reports


time (UTC)temp
F
wind
direction
speed
knots
gust
knots
rain 1hr
in
rain 24hr
in
rain mn
in
humidity
%
barometer
mb
20260510122416 72 318 0.0 0.0 0.00 0.00 0.00 99 1016.6
20260510121913 72 331 0.0 0.0 0.00 0.00 0.00 99 1017.0
20260510121410 72 317 0.0 0.0 0.00 0.00 0.00 99 1016.7
20260510120908 72 329 0.0 0.0 0.00 0.00 0.00 99 1016.7
20260510120405 72 323 0.0 0.0 0.00 0.00 0.00 99 1016.7
20260510115901 71 323 0.0 0.0 0.00 0.00 0.00 99 1016.7
20260510115358 71 323 0.0 0.0 0.00 0.00 0.00 99 1016.4
20260510114854 71 323 0.0 0.0 0.00 0.00 0.00 99 1016.4
20260510114351 71 319 0.0 0.0 0.00 0.00 0.00 99 1016.3
20260510113851 71 318 0.0 0.0 0.00 0.00 0.00 99 1016.5
20260510113347 71 318 0.0 0.0 0.00 0.00 0.00 99 1016.2
20260510112844 71 318 0.0 0.0 0.00 0.00 0.00 99 1016.5
20260510112342 71 318 0.0 0.0 0.00 0.00 0.00 99 1016.3
20260510111837 71 319 0.0 0.0 0.00 0.00 0.00 99 1016.1
20260510111334 71 318 0.0 0.0 0.00 0.00 0.00 99 1015.9
20260510110833 71 318 0.0 0.0 0.00 0.00 0.00 99 1016.0
20260510110331 71 324 0.0 0.0 0.00 0.00 0.00 99 1016.0
20260510105827 71 325 0.0 0.0 0.00 0.00 0.00 99 1015.5
20260510105328 71 324 0.0 0.0 0.00 0.00 0.00 99 1015.6
20260510104824 71 324 0.0 0.0 0.00 0.00 0.00 99 1015.8
20260510104321 71 325 0.0 0.0 0.00 0.00 0.00 99 1015.7
20260510103817 71 322 0.0 0.0 0.00 0.00 0.00 99 1015.6
20260510103314 71 322 0.0 0.0 0.00 0.00 0.00 99 1015.7
20260510102810 71 328 0.0 0.0 0.00 0.00 0.00 99 1015.3
20260510102306 71 328 0.0 0.0 0.00 0.00 0.00 99 1015.4
20260510101803 71 330 0.0 0.0 0.00 0.00 0.00 99 1015.2
20260510101301 71 330 0.0 0.0 0.00 0.00 0.00 99 1015.4
20260510100756 71 330 0.0 0.0 0.00 0.00 0.00 99 1015.4
20260510100255 71 319 0.0 0.0 0.00 0.00 0.00 99 1015.6
20260510095750 71 312 0.0 0.0 0.00 0.00 0.00 99 1015.3
20260510095246 71 328 0.0 0.0 0.00 0.00 0.00 99 1015.2
20260510094745 71 336 0.0 0.0 0.00 0.00 0.00 99 1014.8
20260510094240 71 313 0.0 0.0 0.00 0.00 0.00 99 1015.1
20260510093737 71 310 0.0 0.0 0.00 0.00 0.00 99 1015.1
20260510093234 71 312 0.0 0.0 0.00 0.00 0.00 99 1015.2
20260510092730 71 319 0.0 0.0 0.00 0.00 0.00 99 1015.0
20260510092226 71 319 0.0 0.0 0.00 0.00 0.00 99 1015.0
20260510091722 71 319 0.0 0.0 0.00 0.00 0.00 99 1014.7
20260510091218 71 319 0.0 0.0 0.00 0.00 0.00 99 1014.6
20260510090715 71 319 0.0 0.0 0.00 0.00 0.00 99 1014.5
20260510090212 71 315 0.0 0.0 0.00 0.00 0.00 99 1014.8
20260510085707 71 311 0.0 0.0 0.00 0.00 0.00 99 1014.4
20260510085202 71 318 0.0 0.0 0.00 0.00 0.00 99 1014.4
20260510084658 71 318 0.0 0.0 0.00 0.00 0.00 99 1014.4
20260510084155 71 324 0.0 0.0 0.00 0.00 0.00 99 1014.3
20260510083652 71 322 0.0 0.0 0.00 0.00 0.00 99 1014.4
20260510083149 71 324 0.0 0.0 0.00 0.00 0.00 99 1014.4
20260510082644 71 328 0.0 0.0 0.00 0.00 0.00 99 1014.3
20260510082140 71 328 0.0 0.0 0.00 0.00 0.00 99 1014.3
20260510081635 71 333 0.0 0.0 0.00 0.00 0.00 99 1014.3
20260510081131 71 325 0.0 0.0 0.00 0.00 0.00 99 1014.2
20260510080625 71 325 0.0 0.0 0.00 0.00 0.00 99 1014.0
20260510080122 71 319 0.0 0.0 0.00 0.00 0.00 99 1014.3
20260510075620 71 319 0.0 0.0 0.00 0.00 0.00 99 1014.3
20260510075117 71 312 0.0 0.0 0.00 0.00 0.00 99 1014.6
20260510074613 71 319 0.0 0.0 0.00 0.00 0.00 99 1014.4
20260510074108 71 310 0.0 0.0 0.00 0.00 0.00 99 1014.3
20260510073600 71 310 0.0 0.0 0.00 0.00 0.00 99 1014.4
20260510073057 71 299 0.0 0.0 0.00 0.00 0.00 99 1014.5
20260510072554 71 299 0.0 0.0 0.00 0.00 0.00 99 1014.2
20260510072049 71 299 0.0 0.0 0.00 0.00 0.00 99 1014.3
20260510071545 71 319 0.0 0.0 0.00 0.00 0.00 99 1014.3
20260510071044 71 318 0.0 0.0 0.00 0.00 0.00 99 1014.1
20260510070540 71 318 0.0 0.0 0.00 0.00 0.00 99 1014.1
20260510070037 71 318 0.0 0.0 0.00 0.00 0.00 99 1014.1
20260510065533 71 318 0.0 0.0 0.00 0.00 0.00 99 1014.2
20260510065029 71 319 0.0 0.0 0.00 0.00 0.00 99 1014.1
20260510064526 72 319 0.0 0.0 0.00 0.00 0.00 99 1014.3
20260510064023 72 316 0.0 0.0 0.00 0.00 0.00 99 1014.1
20260510063520 72 314 0.0 0.0 0.00 0.00 0.00 99 1014.2
20260510063017 72 311 0.0 0.0 0.00 0.00 0.00 99 1014.5
20260510062512 72 311 0.0 0.0 0.00 0.00 0.00 99 1014.4
20260510062008 72 300 0.0 0.0 0.00 0.00 0.00 99 1014.6
20260510061505 72 300 0.0 0.0 0.00 0.00 0.00 99 1014.5
20260510061001 72 210 0.0 0.0 0.00 0.00 0.00 99 1014.5
20260510060459 72 34 0.0 0.0 0.00 0.00 0.00 99 1014.4
20260510055954 72 303 0.0 0.0 0.00 0.00 0.00 99 1014.6
20260510055450 72 341 0.0 0.0 0.00 0.00 0.00 99 1014.8
20260510054948 72 313 0.0 0.0 0.00 0.00 0.00 99 1014.8
20260510054443 72 189 0.0 0.0 0.00 0.00 0.00 99 1015.0
20260510053939 72 192 0.0 0.0 0.00 0.00 0.00 99 1015.0
20260510053434 72 325 0.0 0.0 0.00 0.00 0.00 99 1015.0
20260510052931 72 347 0.0 0.0 0.00 0.00 0.00 99 1015.0
20260510052426 72 34 0.0 0.0 0.00 0.00 0.00 99 1015.0
20260510051923 72 335 0.0 0.0 0.00 0.00 0.00 99 1015.0
20260510051420 72 219 0.0 0.0 0.00 0.00 0.00 99 1015.4
20260510050916 72 320 0.0 0.0 0.00 0.00 0.00 99 1015.5
20260510050413 71 209 0.0 0.0 0.00 0.00 0.00 99 1015.4
20260510045910 71 336 0.0 0.0 0.00 0.00 0.00 99 1015.7
20260510045407 71 311 0.0 0.0 0.00 0.00 0.00 99 1015.9
20260510044904 71 305 0.0 0.0 0.00 0.00 0.00 99 1015.7
20260510044401 71 316 0.0 0.0 0.00 0.00 0.00 99 1015.6
20260510043857 71 297 0.0 0.0 0.00 0.00 0.00 99 1015.9
20260510043353 71 309 0.0 0.0 0.00 0.00 0.00 99 1015.6
20260510042852 71 288 0.0 0.0 0.00 0.00 0.00 99 1015.6
20260510042347 71 328 0.0 0.0 0.00 0.00 0.00 99 1015.6
20260510041843 71 323 0.0 0.0 0.00 0.00 0.00 99 1015.7
20260510041341 71 323 0.0 0.0 0.00 0.00 0.00 99 1015.5
20260510040838 71 320 0.0 0.0 0.00 0.00 0.00 99 1015.6
20260510040334 71 311 0.0 0.0 0.00 0.00 0.00 99 1015.9
20260510035830 71 311 0.0 0.0 0.00 0.28 0.28 99 1015.7
20260510035326 71 318 0.0 0.0 0.00 0.28 0.28 99 1015.6
20260510034822 71 321 0.0 0.0 0.00 0.28 0.28 99 1015.6
20260510034320 71 328 0.0 0.0 0.00 0.28 0.28 99 1015.6
20260510033816 71 318 0.0 0.0 0.00 0.28 0.28 99 1015.8
20260510033313 71 328 0.0 0.0 0.00 0.28 0.28 99 1015.8
20260510032810 71 22 0.0 0.0 0.00 0.28 0.28 99 1015.8
20260510032306 71 329 0.0 0.0 0.00 0.28 0.28 99 1015.9
20260510031802 71 323 0.0 0.0 0.00 0.28 0.28 99 1015.9
20260510031258 71 323 0.0 0.0 0.00 0.28 0.28 99 1015.8
20260510030756 71 316 0.0 0.0 0.00 0.28 0.28 99 1015.8
20260510030254 71 303 0.0 0.0 0.00 0.28 0.28 99 1015.8
20260510025751 71 315 0.0 0.0 0.00 0.28 0.28 99 1015.7
20260510025249 71 317 0.0 0.0 0.00 0.28 0.28 99 1015.5
20260510024745 71 325 0.0 0.0 0.00 0.28 0.28 99 1015.5
20260510024242 71 320 0.0 0.0 0.00 0.28 0.28 99 1015.4
20260510023738 71 321 0.0 0.0 0.00 0.28 0.28 99 1015.4
20260510023229 71 313 0.0 0.0 0.00 0.28 0.28 99 1015.3
20260510022725 71 308 0.0 0.0 0.00 0.28 0.28 99 1015.0
20260510022225 71 320 0.0 0.0 0.00 0.28 0.28 99 1015.0
20260510021720 71 303 0.0 0.0 0.00 0.28 0.28 99 1015.1
20260510021218 71 307 0.0 0.0 0.00 0.28 0.28 99 1014.9
20260510020713 71 293 0.0 0.0 0.00 0.28 0.28 99 1014.8
20260510020208 71 317 0.0 0.0 0.00 0.28 0.28 99 1014.7
20260510015704 71 315 0.0 0.0 0.00 0.28 0.28 99 1014.6
20260510015201 71 305 0.0 0.0 0.00 0.28 0.28 99 1014.5
20260510014656 71 334 0.0 0.0 0.00 0.28 0.28 99 1014.6
20260510014154 71 335 0.0 0.0 0.00 0.28 0.28 99 1014.4
20260510013654 71 301 0.0 0.0 0.00 0.28 0.28 99 1014.3
20260510013150 71 309 0.0 0.0 0.00 0.28 0.28 99 1014.2
20260510012649 71 339 0.0 1.7 0.00 0.28 0.28 99 1014.4
20260510012145 71 318 0.0 0.0 0.00 0.28 0.28 98 1014.2
20260510011640 71 338 0.0 0.0 0.00 0.28 0.28 98 1014.0
20260510011136 71 338 0.0 0.0 0.00 0.28 0.28 98 1014.3
20260510010632 71 320 0.0 0.0 0.00 0.28 0.28 98 1014.4
20260510010130 71 303 0.0 0.0 0.00 0.28 0.28 98 1014.3
20260510005625 71 322 0.0 0.0 0.00 0.28 0.28 98 1014.2
20260510005123 71 327 0.0 0.0 0.00 0.28 0.28 98 1014.2
20260510004621 71 290 0.0 0.0 0.00 0.28 0.28 98 1014.6
20260510004119 71 319 0.0 0.0 0.00 0.28 0.28 98 1014.2
20260510003615 71 334 0.0 0.0 0.00 0.28 0.28 98 1014.3
20260510003111 71 335 0.0 0.0 0.00 0.28 0.28 98 1014.3
20260510002606 71 347 0.0 0.0 0.00 0.28 0.28 98 1014.3
20260510002103 71 319 0.0 0.0 0.00 0.28 0.28 98 1014.4
20260510001600 71 302 0.0 0.0 0.00 0.28 0.28 97 1014.5
20260510001059 71 313 0.0 0.0 0.07 0.28 0.28 97 1014.6
20260510000554 71 325 0.0 0.0 0.07 0.28 0.28 97 1014.5
20260510000051 71 284 0.0 0.0 0.00 0.27 0.27 97 1014.6
20260509235547 72 317 0.0 0.0 0.00 0.27 0.27 97 1014.8
20260509235044 72 319 0.9 1.7 0.00 0.27 0.27 97 1014.8
20260509234540 72 302 2.6 2.6 0.00 0.27 0.27 97 1014.8
20260509234038 72 319 0.0 0.0 0.00 0.27 0.27 97 1014.8
20260509233536 72 338 0.0 0.0 0.00 0.27 0.27 97 1014.7
20260509233033 72 329 0.0 0.0 0.00 0.27 0.27 97 1014.6
20260509232529 72 319 0.0 0.0 0.00 0.27 0.27 96 1014.7
20260509232026 72 316 0.9 1.7 0.00 0.27 0.27 97 1014.6
20260509231522 72 323 0.0 0.0 0.00 0.27 0.27 97 1014.6
20260509231021 72 324 0.0 0.0 0.00 0.27 0.27 97 1014.5
20260509230517 72 314 0.0 0.0 0.00 0.27 0.27 96 1014.6
20260509230015 72 327 0.0 0.0 0.00 0.27 0.27 96 1014.5
20260509225509 72 328 0.0 0.0 0.00 0.27 0.27 96 1014.3
20260509225005 72 328 0.0 0.0 0.00 0.27 0.27 96 1014.4
20260509224501 72 334 0.0 0.9 0.00 0.27 0.27 96 1014.5
20260509223957 72 325 0.0 0.9 0.00 0.27 0.27 96 1014.7
20260509223449 72 336 1.7 4.3 0.00 0.27 0.27 96 1014.5
20260509222946 72 348 2.6 2.6 0.00 0.27 0.27 96 1014.3
20260509222442 72 335 0.0 2.6 0.00 0.27 0.27 96 1014.2
20260509221938 72 309 0.0 0.0 0.00 0.27 0.27 96 1014.5
20260509221435 72 309 1.7 2.6 0.00 0.27 0.27 96 1014.6
20260509220930 72 359 2.6 4.3 0.00 0.27 0.27 96 1014.3
20260509220426 72 355 3.5 4.3 0.00 0.27 0.27 96 1014.4
20260509215923 71 347 5.2 6.1 0.00 0.27 0.27 96 1014.3
20260509215418 72 334 2.6 5.2 0.00 0.27 0.27 96 1014.4
20260509214916 73 354 7.8 8.7 0.00 0.27 0.27 96 1014.3
20260509214413 73 347 4.3 5.2 0.00 0.27 0.27 96 1014.2
20260509213910 73 334 1.7 5.2 0.00 0.27 0.27 96 1014.3
20260509213405 72 316 3.5 5.2 0.00 0.27 0.27 97 1014.3
20260509212903 73 17 2.6 2.6 0.00 0.27 0.27 97 1014.1
20260509212401 73 330 1.7 4.3 0.00 0.27 0.27 97 1014.1
20260509211857 73 358 1.7 4.3 0.00 0.27 0.27 97 1013.7
20260509211353 73 336 3.5 5.2 0.00 0.27 0.27 97 1013.8
20260509210849 73 338 0.9 1.7 0.00 0.27 0.27 97 1014.1
20260509210347 73 341 1.7 5.2 0.00 0.27 0.27 97 1014.0
20260509205846 73 303 2.6 4.3 0.00 0.27 0.27 97 1013.9
20260509205346 73 330 2.6 4.3 0.00 0.27 0.27 97 1013.7
20260509204843 73 337 3.5 6.1 0.00 0.27 0.27 97 1013.9
20260509204339 73 330 4.3 8.7 0.00 0.27 0.27 97 1013.9
20260509203836 73 284 4.3 8.7 0.00 0.27 0.27 97 1013.9
20260509203332 75 299 7.0 8.7 0.00 0.27 0.27 97 1013.7
20260509202829 74 332 3.5 7.8 0.00 0.27 0.27 97 1013.9
20260509202325 74 319 1.7 7.0 0.00 0.27 0.27 97 1013.7
20260509201824 75 310 1.7 2.6 0.00 0.27 0.27 97 1013.7
20260509201321 74 309 0.9 1.7 0.05 0.27 0.27 97 1013.8
20260509200818 74 249 2.6 4.3 0.24 0.27 0.27 98 1014.1
20260509200313 74 305 0.9 0.9 0.19 0.26 0.26 96 1013.9
20260509195810 74 317 0.0 0.9 0.00 0.23 0.23 96 1013.8
20260509195306 74 306 0.9 2.6 0.00 0.23 0.23 96 1013.5
20260509194805 73 267 0.9 1.7 0.00 0.23 0.23 96 1013.9
20260509194301 73 279 2.6 2.6 0.00 0.23 0.23 96 1013.8
20260509193758 73 304 0.9 2.6 0.07 0.23 0.23 95 1014.0
20260509193258 73 296 0.9 2.6 0.19 0.23 0.23 95 1013.7
20260509192754 73 269 3.5 6.1 0.78 0.22 0.22 95 1013.9
20260509192249 75 283 1.7 2.6 0.78 0.19 0.19 95 1014.3
20260509191745 75 311 0.9 2.6 0.05 0.07 0.07 95 1013.9
20260509191242 75 313 0.0 0.9 0.00 0.06 0.06 94 1014.1
20260509190738 75 319 0.0 0.9 0.00 0.06 0.06 94 1014.0
20260509190235 76 317 0.0 0.0 0.19 0.06 0.06 93 1014.3
20260509185732 77 310 0.9 1.7 0.31 0.06 0.06 92 1014.0
20260509185228 77 317 0.0 1.7 0.17 0.03 0.03 89 1013.8
20260509184726 79 306 1.7 2.6 0.05 0.01 0.01 86 1013.9
20260509184223 79 279 2.6 2.6 0.00 0.00 0.00 84 1014.0
20260509183719 80 308 0.9 4.3 0.00 0.00 0.00 83 1013.8
20260509183215 80 235 0.9 2.6 0.00 0.00 0.00 82 1014.0
20260509182710 80 7 0.0 0.9 0.00 0.00 0.00 82 1014.0
20260509182208 81 99 0.9 0.9 0.00 0.00 0.00 82 1013.9
20260509181706 81 259 1.7 2.6 0.00 0.00 0.00 81 1013.9
20260509181203 81 292 0.0 1.7 0.00 0.00 0.00 82 1013.9
20260509180700 80 141 0.9 2.6 0.00 0.00 0.00 81 1013.9
20260509180155 80 308 0.9 4.3 0.00 0.00 0.00 81 1014.1
20260509175652 81 244 3.5 4.3 0.00 0.00 0.00 80 1014.1
20260509175149 80 319 0.0 0.9 0.00 0.00 0.00 81 1014.2
20260509174645 81 284 2.6 4.3 0.00 0.00 0.00 81 1014.3
20260509174140 81 290 0.0 2.6 0.00 0.00 0.00 80 1014.1
20260509173637 80 70 0.9 1.7 0.00 0.00 0.00 81 1014.2
20260509173132 80 325 0.0 1.7 0.00 0.00 0.00 82 1014.3
20260509172629 79 136 0.9 2.6 0.00 0.00 0.00 83 1014.6
20260509172125 79 124 2.6 4.3 0.00 0.00 0.00 83 1014.5
20260509171621 80 119 2.6 4.3 0.00 0.00 0.00 82 1014.4
20260509171117 80 143 2.6 2.6 0.00 0.00 0.00 82 1014.4
20260509170614 80 312 0.0 4.3 0.00 0.00 0.00 83 1014.6
20260509170110 79 304 0.0 1.7 0.00 0.00 0.00 83 1014.3
20260509165609 79 261 1.7 1.7 0.00 0.00 0.00 83 1014.4
20260509165104 78 116 3.5 4.3 0.00 0.00 0.00 85 1014.3
20260509164600 77 219 0.9 1.7 0.00 0.00 0.00 85 1014.4
20260509164056 77 126 2.6 4.3 0.00 0.00 0.00 86 1014.5
20260509163555 78 337 0.0 1.7 0.00 0.00 0.00 85 1014.4
20260509163055 78 105 0.9 2.6 0.00 0.00 0.00 85 1014.6
20260509162552 77 280 0.9 1.7 0.00 0.00 0.00 86 1014.9
20260509162048 77 357 0.0 4.3 0.00 0.00 0.00 86 1014.6
20260509161545 77 330 0.0 1.7 0.00 0.00 0.00 86 1014.8
20260509161039 77 337 0.0 1.7 0.00 0.00 0.00 86 1014.7
20260509160535 77 347 1.7 2.6 0.00 0.00 0.00 86 1014.8
20260509160031 77 357 2.6 2.6 0.00 0.00 0.00 86 1014.8
20260509155527 77 15 0.0 0.9 0.00 0.00 0.00 86 1014.9
20260509155023 77 333 0.0 1.7 0.00 0.00 0.00 86 1014.7
20260509154520 77 108 2.6 2.6 0.00 0.00 0.00 85 1014.7
20260509154018 78 332 0.0 1.7 0.00 0.00 0.00 85 1014.6
20260509153515 78 108 0.9 1.7 0.00 0.00 0.00 84 1014.5
20260509153011 78 308 0.0 0.9 0.00 0.00 0.00 84 1014.6
20260509152507 77 310 0.0 0.9 0.00 0.00 0.00 86 1015.0
20260509152004 77 264 0.9 2.6 0.00 0.00 0.00 86 1014.8
20260509151500 76 178 0.9 1.7 0.00 0.00 0.00 86 1014.8
20260509150959 77 116 1.7 2.6 0.00 0.00 0.00 85 1014.7
20260509150455 78 284 0.9 1.7 0.00 0.00 0.00 85 1014.7
20260509145954 77 324 0.0 0.0 0.00 0.00 0.00 85 1014.8
20260509145449 77 297 0.0 0.9 0.00 0.00 0.00 85 1014.9
20260509144944 78 328 0.0 2.6 0.00 0.00 0.00 86 1015.0
20260509144442 77 285 0.9 1.7 0.00 0.00 0.00 86 1015.0
20260509143938 76 320 0.0 0.9 0.00 0.00 0.00 86 1015.2
20260509143436 76 183 1.7 4.3 0.00 0.00 0.00 87 1014.7
20260509142932 75 338 0.9 0.9 0.00 0.00 0.00 88 1014.8
20260509142429 76 12 0.0 0.0 0.00 0.00 0.00 88 1014.6
20260509141924 75 298 0.0 0.0 0.00 0.00 0.00 89 1014.6
20260509141421 74 331 0.0 0.9 0.00 0.00 0.00 90 1014.8
20260509140918 74 298 0.0 1.7 0.00 0.00 0.00 90 1014.8
20260509140414 74 272 0.0 0.9 0.00 0.00 0.00 91 1014.6
20260509135913 73 151 0.9 2.6 0.00 0.00 0.00 90 1015.0
20260509135410 74 301 0.0 0.9 0.00 0.00 0.00 91 1015.0
20260509134907 73 314 0.0 2.6 0.00 0.00 0.00 92 1015.0
20260509134405 73 244 1.7 1.7 0.00 0.00 0.00 92 1015.0
20260509133901 73 311 0.9 2.6 0.00 0.00 0.00 92 1014.9
20260509133358 72 337 0.9 2.6 0.00 0.00 0.00 93 1014.9
20260509132857 72 340 3.5 4.3 0.00 0.00 0.00 92 1014.8
20260509132354 73 313 1.7 2.6 0.00 0.00 0.00 92 1014.7
20260509131851 73 330 1.7 2.6 0.00 0.00 0.00 92 1014.5
20260509131348 73 319 1.7 2.6 0.00 0.00 0.00 91 1014.3
20260509130845 74 303 0.9 0.9 0.00 0.00 0.00 90 1014.5
20260509130340 73 263 0.9 1.7 0.00 0.00 0.00 91 1014.5
20260509125837 73 294 0.9 0.9 0.00 0.00 0.00 91 1014.3
20260509125333 73 310 0.9 0.9 0.00 0.00 0.00 92 1014.3
20260509124830 73 328 0.0 1.7 0.00 0.00 0.00 91 1014.2
20260509124327 73 310 0.0 0.9 0.00 0.00 0.00 92 1014.2
20260509123825 72 285 0.9 1.7 0.00 0.00 0.00 92 1014.3
20260509123322 72 310 0.0 0.9 0.00 0.00 0.00 92 1014.2
20260509122817 72 294 0.0 0.0 0.00 0.00 0.00 92 1014.0